OneWeb SL0107

operational
NORAD ID: 48048 Int'l Des: 2021-025 Owner: ONEWEBN Country: UK Constellation: oneweb
LEOCIRCULARPOLARONEWEB_TYPE

Über OneWeb SL0107

Beschreibung wird geladen...

Live-Position

3D-Globus wird geladen...

Nächste Überflüge

Höhenverlauf

Altitude vs Time

uPlot chart will show altitude changes over time

Zweizeiliger Elementsatz

1 48048U 21025G 25258.56056332 .00000242 00000-0 62849-3 0 9996
2 48048 87.9037 14.7551 0001862 109.0372 251.0959 13.13470846217471
Epoch: 15. Sept. 2025 • Age: 17 hours

Aktueller Status

Höhe 1214.5 km
Geschwindigkeit 7.25 km/s
Subsatellitenpunkt 37.82°N, 70.7°W
Startdatum 25. März 2021
Alter 4.4 years
Typ internet

Technische Details

Klassifizierung Payload
Masse 148.00 kg
Trockenmasse 140.00 kg
Gesamtmasse 148.00 kg
Länge 1.30 m
Durchmesser 1.00 m
Spannweite 5.00 m
Form Trapezoid+2 pan
Hersteller ONEWUS
Bus-Typ ARROW
Phasenstatus In Orbit
Besitzer/Staat ONEWEBN/UK

Große Konstellationen

Loading constellations...